Regional Weather Roundup
Issued by NWS Upton, NY

Current Version | Previous Version | Text Only | Print | Product List | Glossary On
Versions: 1 2 3 4 5 6 7 8 9 10 11 12 13 14 15 16 17 18 19 20 21 22 23 24 25 26 27 28 29 30 31 32 33 34 35 36 37 38 39 40 41 42 43 44 45 46 47 48 49 50
000
ASUS41 KOKX 261118
RWROKX

REGIONAL WEATHER ROUNDUP
NATIONAL WEATHER SERVICE NEW YORK NY
700 AM EDT TUE MAY 26 2015

NOTE: "FAIR" INDICATES FEW OR NO CLOUDS BELOW 12,000 FEET WITH NO
SIGNIFICANT WEATHER AND/OR OBSTRUCTIONS TO VISIBILITY.

NYZ071-072-176-178-NJZ106-104-261200-
NEW YORK CITY METRO AREA


CITY           SKY/WX    TMP DP  RH WIND       PRES   REMARKS
CENTRAL PARK   SUNNY     67  56  67 VRB6      30.24R
LAGUARDIA APRT PTSUNNY   68  56  65 SW13      30.21R
KENNEDY INTL   MOSUNNY   65  57  75 S6        30.24R
NEWARK/LIBERTY PTSUNNY   67  57  70 SW10      30.22R
BRNX BOT. GARD   N/A     68  55  64 SW12      30.24R
TETERBORO      SUNNY     67  55  65 S8        30.20R
$$

NYZ177-179-078>081-261200-
LONG ISLAND NEW YORK

CITY           SKY/WX    TMP DP  RH WIND       PRES   REMARKS
FARMINGDALE    SUNNY     63  58  83 SW9       30.24R
ISLIP          MOSUNNY   62  58  86 SW12      30.23R
SHIRLEY        SUNNY     63  58  83 SW13      30.25R
WESTHAMPTON    SUNNY     61  58  90 SW10      30.26R
MONTAUK POINT    N/A     59  56  89 S10G22    30.25R
$$

NYZ052-065-067-261200-
HUDSON VALLEY

CITY           SKY/WX    TMP DP  RH WIND       PRES   REMARKS
WHITE PLAINS   MOSUNNY   66  55  67 CALM      30.21R
NEWBURGH       NOT AVBL
MONTGOMERY     MOSUNNY   69  60  73 SW9       30.18R
POUGHKEEPSIE   MOSUNNY   68  59  73 S3        30.17R
ALBANY         LGT RAIN  72  58  61 SE9       30.11R
$$

NJZ001-105-106-008-010-013-015-019>022-104-261200-
NEW JERSEY

CITY           SKY/WX    TMP DP  RH WIND       PRES   REMARKS
NEWARK/LIBERTY PTSUNNY   67  57  70 SW10      30.22R
TETERBORO      SUNNY     67  55  65 S8        30.20R
CALDWELL       SUNNY     65  54  67 VRB3      30.22R
MORRISTOWN     SUNNY     63  57  82 SW3         N/A
SOMERVILLE     SUNNY     60  56  86 CALM      30.20R
SUSSEX         MOSUNNY   65  58  78 SW3       30.21R
ANDOVER          N/A     65  58  78 CALM      30.21R
TRENTON        SUNNY     64  58  80 S8        30.22R
MILLVILLE      SUNNY     68  62  81 VRB5      30.25R
ATLANTIC CITY  SUNNY     66  60  81 S9        30.25R
WRIGHTSTOWN    SUNNY     63  61  93 SW7       30.22R
TOMS RIVER     SUNNY    N/A N/A N/A SW10      30.24S
BELMAR         SUNNY     64  55  72 SW9       30.24R
$$

PAZ047>061-062-071-261200-
EASTERN PENNSYLVANIA

CITY           SKY/WX    TMP DP  RH WIND       PRES   REMARKS
PHILADELPHIA   MOSUNNY   67  60  78 S10       30.23R
ALLENTOWN      SUNNY     65  59  81 CALM      30.21R
SCRANTON       PTSUNNY   69  57  65 CALM      30.19R
$$

CTZ002-004>006-009-010-012-RIZ004-006-007-MAZ004-011-015-261200-
SOUTHERN NEW ENGLAND
 IN CT

CITY           SKY/WX    TMP DP  RH WIND       PRES   REMARKS
BRADLEY INTL   PTSUNNY   65  53  65 S13       30.17R
HARTFORD       SUNNY     64  53  67 S9        30.19R
DANBURY        SUNNY     65  53  65 SW7       30.22R
WTRBRY/OXFORD  MOSUNNY   61  52  72 SW5       30.23R
BRIDGEPORT     SUNNY     61  56  83 SW6       30.22R
MERIDEN        MOSUNNY   64  55  72 S8        30.21R
NEW HAVEN      MOSUNNY   60  56  86 SW5       30.22R
CHESTER        FAIR      61  57  88 SW10      30.23R
GROTON         MOSUNNY   59  55  87 S8        30.22S
WILLIMANTIC    PTSUNNY   64  55  72 S8        30.20R

 IN RI

CITY           SKY/WX    TMP DP  RH WIND       PRES   REMARKS
PROVIDENCE     PTSUNNY   64  56  75 S10       30.20R
BLOCK ISLAND   SUNNY     57  54  88 SW20G28   30.24S
WESTERLY       MOSUNNY   60  56  86 SW7       30.23S

 IN MA

CITY           SKY/WX    TMP DP  RH WIND       PRES   REMARKS
BOSTON         PTSUNNY   66  55  67 SW17G23   30.14R
WORCESTER      PTSUNNY   64  54  69 SW15      30.17R
WESTFIELD      PTSUNNY   65  56  72 S8        30.16R
PROVINCETOWN   PTSUNNY   61  54  77 S17       30.20R
NANTUCKET      MOSUNNY   60  56  86 S18G25    30.25S
$$

ANZ330-335-338-340-345-350-353-355-261200-
COASTAL MARINE OBSERVATIONS


STATION/POSITION TIME  SKY/WX   TEMP    WIND        PRES    VSBY  WAVE
                                AIR SEA DIR/SP/G                  HT/PER
                 (UTC)          (F)     (DEG/KT/KT) (MB)    (MI)  (FT/S)
NY HARB ENTRANCE 1050            59 56  200/ 14/ 16 1023.3          3/ 5
4S FIRE IS       1003               54                N/A           4/ 6
20S FIRE ISLAND  1050            58 55  200/ 14/ 16 1023.9          3/ 5
GREAT SOUTH BAY  1000            60 64  250/ 12/ 14   N/A
23SW MTP         1050            57 52  220/ 12/ 14 1024.3          4/ 5
HUDSON CANYON    NOT AVBL
KINGS POINT      1000            63 55  210/  8/ 10 1022.1
CENTRAL LI SOUND 1045            58 54  190/  8/ 10   N/A
EASTERN LI SOUND 1000            56     210/ 10/ 12   N/A
ROBBINS REEF     1000            65     210/  5/  6 1021.8
$$


>>>>>>>>>>>>>>>>>>>>>>>>>>>> KEY <<<<<<<<<<<<<<<<<<<<<<<<<<<
>                                                          <
>     SKY/WX - SKY CONDITION/PRESENT WEATHER               <
>     TMP    - TEMPERATURE IN FAHRENHEIT                   <
>     DP     - DEWPOINT IN FAHRENHEIT                      <
>     RH     - RELATIVE HUMIDITY IN PERCENT                <
>     WIND   - DIRECTION AND SPEED IN MPH                  <
>     PRES   - MEAN SEA LEVEL PRESSURE IN INCHES OF HG     <
>     WCI    - WIND CHILL INDEX                            <
>     VSB    - VISIBILITY IN MILES                         <
>     HX     - HEAT INDEX                                  <
>     TC     - TEMPERATURE IN CELSIUS                      <
>     VRB    - VARIABLE WIND DIRECTION                     <
>                                                          <
>>>>>>>>>>>>>>>>>>>>>>>>>>>> KEY <<<<<<<<<<<<<<<<<<<<<<<<<<<




USA.gov is the U.S. government's official web portal to all federal, state and local government web resources and services.